Main page
METAR-TAF:

METAR-TAF

Airports :

Oil platform

Euro, Netherlands

latitude: 51-59-52N, longitude: 3-16-30E, elevation: 18 m

Current weather observation

The report was made 23 minutes ago, at 21:55 UTC
Wind 12 kt from the South
Temperature 3°C
Humidity 93%
Pressure 997 hPa
Visibility: 5000 m
mist

METAR: EHSA 222155Z AUTO 17012KT 5000 BR ///////// 03/02 Q0997 W05/H11

Time: 23:18 (22:18 UTC)


TAF: missing

Weather observations and forecasts of more than 4000 airports (METAR and TAF reports).

The available stations are represented by yellow and red dots on the map.

Hover mouse over dot to see the name of the station.

Then click to see weather observations and forecasts.

To change the map : click on the green buttons with a black cross to zoom in, on the green button with a dash to zoom out, or on the green arrows for adjacent maps.


METAR-TAF: